Location: ???? ???? ?????
(31.2680°N, 31.7283°E)
Time: 19:26:45
(UTC+00:00)

CZ-4C R/B - Pass Details

Date: 13 July 2020
Orbit: 632 x 1370 km, 63.4° (Epoch: 06 August)

Event Time Altitude Azimuth Distance (km) Brightness Sun altitude
Rises 22:34:05 0° 321° (NW) 4,071 6.2 -36.4°
Reaches altitude 10° 22:36:51 10° 315° (NW) 3,193 5.5 -36.3°
Enters shadow 22:41:24 33° 289° (WNW) 2,030 4.1 -36.1°
